Weather History for KAFK - February, 2013

Change the Weather History Date:

Tuesday, February 12, 2013

  Actual Average (KOMA) Record (KOMA)
Temperature  
Mean Temperature 34 °F 27 °F  
Max Temperature 49 °F 37 °F 71 °F (1990)
Min Temperature 20 °F 17 °F -22 °F (1899)
Degree Days  
Heating Degree Days 30 38  
Month to date heating degree days 471  
Since 1 July heating degree days 4236  
Cooling Degree Days 0 0  
Month to date cooling degree days 0  
Year to date cooling degree days 0  
Moisture  
Dew Point 21 °F    
Average Humidity 65    
Maximum Humidity 97    
Minimum Humidity 30    
Precipitation  
Precipitation 0.00 in 0.03 in 1.02 in (1949)
Month to date precipitation 0.33  
Year to date precipitation 1.05  
Snow  
Snow 0.00 in 0.20 in - ()
Month to date snowfall 2.8  
Since 1 July snowfall 17.9  
Snow Depth -    
Sea Level Pressure  
Sea Level Pressure 30.02 in    
Wind  
Wind Speed 3 mph (WSW)    
Max Wind Speed 17 mph    
Max Gust Speed 25 mph    
Visibility 10 miles    
Events      
T = Trace of Precipitation, MM = Missing Value Source: NWS Daily Summary

Daily Weather History Graph

Daily Weather History Graph

Search for Another Location

Airport or City:

Trip Planner

Search our weather history database for the weather conditions in past years. The results will help you decide how hot, cold, wet, or windy it might be!

Date:

Astronomy

Feb. 12, 2013 Rise Set
Actual Time 7:20 AM CST 5:55 PM CST
Civil Twilight 6:52 AM CST 6:23 PM CST
Nautical Twilight 6:20 AM CST 6:55 PM CST
Astronomical Twilight 5:48 AM CST 7:27 PM CST
Moon 8:17 AM CST (2/12) 8:58 PM CST (2/12)
Length of Visible Light 11h 30m
Length of Day
10h 34m
Waxing Crescent, 7% of the Moon is Illuminated
Feb 12
Waxing Crescent
Feb 17
First Quarter
Feb 25
Full
Mar 4
Last Quarter
Mar 11
New

Hourly Weather History & Observations

Time (CST) Temp. Windchill Dew Point Humidity Pressure Visibility Wind Dir Wind Speed Gust Speed Precip Events Conditions
12:15 AM 25.0 °F - 21.4 °F 86% 30.15 in 10.0 mi Calm Calm - N/A   Clear
12:35 AM 25.7 °F - 22.1 °F 86% 30.15 in 10.0 mi Calm Calm - N/A   Clear
12:55 AM 25.5 °F - 21.9 °F 86% 30.15 in 10.0 mi Calm Calm - N/A   Clear
1:15 AM 24.8 °F - 21.2 °F 86% 30.16 in 10.0 mi Calm Calm - N/A   Clear
1:35 AM 24.8 °F - 21.6 °F 87% 30.15 in 10.0 mi Calm Calm - N/A   Clear
1:55 AM 23.9 °F - 20.1 °F 85% 30.14 in 10.0 mi Calm Calm - N/A   Clear
2:15 AM 24.6 °F - 21.2 °F 87% 30.15 in 10.0 mi Calm Calm - N/A   Clear
2:35 AM 24.1 °F - 21.2 °F 89% 30.14 in 10.0 mi Calm Calm - N/A   Clear
2:55 AM 24.8 °F - 21.4 °F 87% 30.13 in 10.0 mi Calm Calm - N/A   Clear
3:15 AM 24.8 °F - 21.4 °F 87% 30.12 in 10.0 mi Calm Calm - N/A   Clear
3:35 AM 24.8 °F - 21.2 °F 86% 30.11 in 10.0 mi Calm Calm - N/A   Clear
3:55 AM 23.4 °F - 19.9 °F 87% 30.10 in 10.0 mi Calm Calm - N/A   Clear
4:15 AM 21.9 °F - 20.3 °F 93% 30.11 in 10.0 mi Calm Calm - N/A   Clear
4:35 AM 22.1 °F - 21.2 °F 96% 30.11 in 10.0 mi Calm Calm - N/A   Clear
4:55 AM 22.6 °F - 21.4 °F 95% 30.11 in 10.0 mi Calm Calm - N/A   Clear
5:15 AM 21.2 °F - 19.9 °F 95% 30.12 in 10.0 mi Calm Calm - N/A   Clear
5:35 AM 21.6 °F - 20.8 °F 97% 30.12 in 10.0 mi Calm Calm - N/A   Clear
5:55 AM 20.8 °F - 19.9 °F 96% 30.12 in 7.0 mi Calm Calm - N/A   Clear
6:15 AM 20.5 °F - 19.8 °F 97% 30.11 in 7.0 mi Calm Calm - N/A   Clear
6:35 AM 21.2 °F - 20.3 °F 96% 30.10 in 7.0 mi Calm Calm - N/A   Clear
6:55 AM 20.3 °F - 19.4 °F 96% 30.10 in 7.0 mi Calm Calm - N/A   Clear
7:15 AM 20.8 °F - 19.2 °F 93% 30.09 in 10.0 mi Calm Calm - N/A   Clear
7:35 AM 21.6 °F - 20.3 °F 95% 30.08 in 7.0 mi Calm Calm - N/A   Clear
7:55 AM 21.2 °F - 20.1 °F 96% 30.08 in 7.0 mi Calm Calm - N/A   Clear
8:15 AM 23.0 °F - 22.1 °F 96% 30.09 in 7.0 mi Calm Calm - N/A   Clear
8:35 AM 25.7 °F - 24.3 °F 94% 30.08 in 7.0 mi Calm Calm - N/A   Clear
8:55 AM 28.6 °F - 26.6 °F 92% 30.08 in 10.0 mi Calm Calm - N/A   Clear
9:15 AM 30.2 °F - 26.4 °F 86% 30.09 in 10.0 mi Calm Calm - N/A   Clear
9:35 AM 31.3 °F 24.7 °F 27.0 °F 84% 30.08 in 10.0 mi SSW 6.9 mph - N/A   Clear
9:55 AM 33.6 °F 30.6 °F 27.5 °F 78% 30.06 in 10.0 mi SW 3.5 mph - N/A   Clear
10:15 AM 36.1 °F 27.3 °F 26.4 °F 68% 30.06 in 10.0 mi SW 13.8 mph - N/A   Clear
10:35 AM 37.8 °F 30.2 °F 25.7 °F 62% 30.07 in 10.0 mi SW 11.5 mph - N/A   Clear
10:55 AM 39.9 °F 32.1 °F 23.0 °F 51% 30.07 in 10.0 mi WSW 13.8 mph - N/A   Clear
11:15 AM 41.4 °F 34.3 °F 23.4 °F 49% 30.08 in 10.0 mi WSW 12.7 mph 17.3 mph N/A   Clear
11:35 AM 42.3 °F 36.8 °F 24.1 °F 49% 30.07 in 10.0 mi WSW 9.2 mph - N/A   Clear
11:55 AM 44.6 °F 38.4 °F 22.6 °F 42% 30.05 in 10.0 mi WSW 12.7 mph - N/A   Clear
12:15 PM 45.1 °F 38.4 °F 21.0 °F 38% 30.04 in 10.0 mi West 15.0 mph 18.4 mph N/A   Clear
12:35 PM 46.6 °F - 20.1 °F 35% 30.02 in 10.0 mi West 15.0 mph 18.4 mph N/A   Clear
12:55 PM 46.6 °F - 19.9 °F 35% 30.01 in 10.0 mi WSW 11.5 mph 17.3 mph N/A   Clear
1:15 PM 47.1 °F - 19.8 °F 34% 30.00 in 10.0 mi WSW 11.5 mph 21.9 mph N/A   Clear
1:35 PM 47.8 °F - 19.6 °F 33% 29.99 in 10.0 mi West 11.5 mph 19.6 mph N/A   Clear
1:55 PM 48.2 °F - 19.6 °F 32% 29.98 in 10.0 mi West 15.0 mph 18.4 mph N/A   Clear
2:15 PM 48.2 °F - 19.8 °F 32% 29.97 in 10.0 mi WSW 17.3 mph 20.7 mph N/A   Clear
2:35 PM 48.6 °F - 19.9 °F 32% 29.96 in 10.0 mi West 11.5 mph 18.4 mph N/A   Clear
2:55 PM 49.1 °F - 19.8 °F 31% 29.96 in 10.0 mi WSW 15.0 mph 20.7 mph N/A   Clear
3:15 PM 49.3 °F - 20.1 °F 32% 29.94 in 10.0 mi West 6.9 mph 18.4 mph N/A   Clear
3:35 PM 49.5 °F - 18.9 °F 30% 29.94 in 10.0 mi WSW 15.0 mph 25.3 mph N/A   Clear
3:55 PM 49.3 °F - 18.7 °F 30% 29.94 in 10.0 mi West 12.7 mph 17.3 mph N/A   Clear
4:15 PM 49.1 °F - 18.9 °F 30% 29.93 in 10.0 mi WSW 13.8 mph 18.4 mph N/A   Clear
4:35 PM 48.7 °F - 18.9 °F 31% 29.93 in 10.0 mi West 15.0 mph 18.4 mph N/A   Clear
4:55 PM 47.7 °F - 18.9 °F 32% 29.92 in 10.0 mi West 11.5 mph - N/A   Clear
5:15 PM 46.2 °F - 19.4 °F 34% 29.92 in 10.0 mi Calm Calm - N/A   Clear
5:35 PM 43.0 °F - 21.2 °F 42% 29.92 in 10.0 mi Calm Calm - N/A   Clear
5:55 PM 39.7 °F - 21.4 °F 48% 29.92 in 10.0 mi Calm Calm - N/A   Clear
6:15 PM 38.3 °F - 21.2 °F 50% 29.92 in 10.0 mi Calm Calm - N/A   Clear
6:35 PM 37.4 °F - 21.6 °F 53% 29.92 in 10.0 mi Calm Calm - N/A   Clear
6:55 PM 36.9 °F - 21.4 °F 54% 29.92 in 10.0 mi Calm Calm - N/A   Clear
7:15 PM 38.1 °F - 20.8 °F 50% 29.91 in 10.0 mi Calm Calm - N/A   Clear
7:35 PM 37.2 °F - 20.1 °F 50% 29.91 in 10.0 mi Calm Calm - N/A   Clear
7:55 PM 34.3 °F - 20.3 °F 57% 29.91 in 10.0 mi Calm Calm - N/A   Clear
8:15 PM 35.1 °F 31.0 °F 20.3 °F 55% 29.91 in 10.0 mi West 4.6 mph - N/A   Clear
8:35 PM 35.2 °F - 20.5 °F 55% 29.91 in 10.0 mi Calm Calm - N/A   Clear
8:55 PM 34.5 °F - 20.5 °F 57% 29.91 in 10.0 mi Calm Calm - N/A   Clear
9:15 PM 34.3 °F - 20.1 °F 56% 29.91 in 10.0 mi Calm Calm - N/A   Clear
9:35 PM 34.7 °F - 20.1 °F 55% 29.92 in 10.0 mi Calm Calm - N/A   Clear
9:55 PM 34.3 °F - 20.1 °F 56% 29.92 in 10.0 mi Calm Calm - N/A   Clear
10:15 PM 33.4 °F - 20.3 °F 59% 29.93 in 10.0 mi Calm Calm - N/A   Clear
10:35 PM 32.9 °F - 20.3 °F 60% 29.93 in 10.0 mi Calm Calm - N/A   Clear
10:55 PM 32.4 °F - 19.9 °F 60% 29.93 in 10.0 mi Calm Calm - N/A   Clear
11:15 PM 32.0 °F - 20.3 °F 62% 29.92 in 10.0 mi Calm Calm - N/A   Clear
11:35 PM 31.6 °F - 20.3 °F 63% 29.92 in 10.0 mi Calm Calm - N/A   Clear
11:55 PM 31.1 °F - 19.9 °F 63% 29.92 in 10.0 mi Calm Calm - N/A   Clear